This is the latest recevied weather packets stored in our database for station/object KD4EED. If no packets are shown the sender has not sent any weather packets the latest 10 day(s).
| Time | Temp. | Humidity | Pressure | Rain* | Wind** | Luminosity | Snow |
|---|---|---|---|---|---|---|---|
| 1777918853 | 20° C | 53% | 1013.4 hPa | - | - | 746 W/m² | - |
| 1777918550 | 20° C | 54% | 1013.3 hPa | - | - | 669 W/m² | - |
| 1777918248 | 20° C | 52% | 1013.6 hPa | - | - | 590 W/m² | - |
| 1777917947 | 20.56° C | 52% | 1013.6 hPa | - | - | 350 W/m² | - |
| 1777917646 | 20° C | 53% | 1013.6 hPa | - | - | 909 W/m² | - |
| 1777917342 | 19.44° C | 54% | 1013.5 hPa | - | - | 836 W/m² | - |
| 1777917039 | 19.44° C | 55% | 1013.4 hPa | - | - | 696 W/m² | - |
| 1777916737 | 19.44° C | 54% | 1013.5 hPa | - | - | 719 W/m² | - |
| 1777916434 | 19.44° C | 54% | 1013.4 hPa | - | - | 702 W/m² | - |
| 1777916131 | 19.44° C | 55% | 1013.3 hPa | - | - | 679 W/m² | - |
| 1777915828 | 20° C | 55% | 1013.4 hPa | - | - | 487 W/m² | - |
| 1777915524 | 19.44° C | 56% | 1013.3 hPa | - | - | 663 W/m² | - |
| 1777915221 | 20° C | 57% | 1013.5 hPa | - | - | 438 W/m² | - |
| 1777914918 | 19.44° C | 59% | 1013.3 hPa | - | - | 641 W/m² | - |
| 1777914615 | 20° C | 58% | 1013 hPa | - | - | 515 W/m² | - |
| 1777914310 | 19.44° C | 58% | 1013.3 hPa | - | - | 643 W/m² | - |
| 1777914009 | 19.44° C | 59% | 1012.9 hPa | - | - | 597 W/m² | - |
| 1777913704 | 18.89° C | 60% | 1013.1 hPa | - | - | 581 W/m² | - |
| 1777913401 | 18.89° C | 61% | 1013.4 hPa | - | - | 587 W/m² | - |
| 1777913097 | 18.33° C | 61% | 1013.4 hPa | - | - | 563 W/m² | - |
| 1777912794 | 18.33° C | 62% | 1013 hPa | - | - | 553 W/m² | - |
| 1777912489 | 17.78° C | 63% | 1013 hPa | - | - | 534 W/m² | - |
| 1777912187 | 17.78° C | 63% | 1013.1 hPa | - | - | 514 W/m² | - |
| 1777911883 | 17.22° C | 65% | 1012.9 hPa | - | - | 112 W/m² | - |
| 1777911579 | 17.22° C | 65% | 1012.8 hPa | - | - | 71 W/m² | - |
* Rain since midnight (hover to see other rain measurements)
** Current wind speed in m/s (hover to see current wind gust speed)